World > North America > United States > North Carolina

Hourly Olivers Crossroads, NC Regional Weather

Feedback E-mail the Weather

Quick WX

Olivers Crossroads, NC Weather Maps

°F °C°F °C
Olivers Crossroads Weather Map
UTC Time: 6/27/2022, 17:57
Your Time:

Olivers Crossroads, NC Regional Weather

Expires:202206271800;;283900
ASUS42 KRAH 271710
RWRRAH
NORTH CAROLINA WEATHER ROUNDUP
NATIONAL WEATHER SERVICE RALEIGH NC
100 PM EDT MON JUN 27 2022

NOTE: "FAIR" INDICATES FEW OR NO CLOUDS BELOW 12,000 FEET WITH NO
SIGNIFICANT WEATHER AND/OR OBSTRUCTIONS TO VISIBILITY.


NCZ001-053-055-056-065-067-271800-
WESTERN NORTH CAROLINA
  
CITY           SKY/WX    TMP DP  RH WIND       PRES   REMARKS
ASHEVILLE      LGT RAIN  73  67  81 N10       30.18S                  
JEFFERSON      PTSUNNY   71  62  73 W8        30.21F                  
MORGANTON      PTSUNNY   78  73  86 SW5       30.15F                  
HICKORY        LGT RAIN  76  73  91 SW5       30.11F                  
WILKESBORO     PTSUNNY   81  66  61 N12       30.14F                  
RUTHERFORDTON  PTSUNNY   81  68  65 CALM      30.13F                  
MOUNT AIRY     CLOUDY    70  70  98 SW3       30.12F                  
BOONE          CLOUDY    74  62  66 W10G17    30.21F                  
$$
 

SKY/WX - Weather  TMP - Temperature  DP - Dew Point  RH - Humidity
WIND - Wind Direction/Speed PRES - Barometric Pressure VSB - Visibility
WCI - Wind Chill Index E13G22 Wind - East Wind 13 mph/Gusts of 22 mph

Trending Headlines

Olivers Crossroads Radar Loop



Olivers Crossroads Quick Facts


National Two Day Weather Forecast


E-mail the Olivers Crossroads Weather Forecast

Voice your opinion or tell us about page issues...